Location: Clarion
(42.7316°N, 93.7330°W)
Time: 09:01:25
(UTC+00:00)

Cosmos 1697 Rocket - Pass Details

Date: 22 April 2026
Orbit: 832 x 842 km, 71.0° (Epoch: 17 May)

Event Time Altitude Azimuth Distance (km) Brightness Sun altitude
Rises 05:01:33 0° 343° (NNW) 3,399 7.0 -32.6°
Reaches altitude 10° 05:04:20 10° 354° (N) 2,459 5.9 -32.8°
Enters shadow 05:08:36 29° 43° (NE) 1,506 4.2 -33.1°
